Weather History for Rugby, ND

Change the Weather History Date:

Tuesday, May 7, 2013

  Actual Average Record
Temperature  
Mean Temperature 54 °F -  
Max Temperature 73 °F 66 °F 90 °F (1992)
Min Temperature 35 °F 40 °F 26 °F (1991)
Degree Days  
Heating Degree Days 11    
Growing Degree Days 4 (Base 50)    
Moisture  
Dew Point 38 °F    
Average Humidity 53    
Maximum Humidity 93    
Minimum Humidity 27    
Precipitation  
Precipitation 0.00 in - - ()
Sea Level Pressure  
Sea Level Pressure 29.92 in    
Wind  
Wind Speed 6 mph (SSE)    
Max Wind Speed 15 mph    
Max Gust Speed 21 mph    
Visibility 10 miles    
Events      
Averages and records for this station are not official NWS values.
T = Trace of Precipitation, MM = Missing Value Source: NWS Daily Summary

Daily Weather History Graph

Daily Weather History Graph

Search for Another Location

Airport:

Trip Planner

Search our weather history database for the weather conditions in past years. The results will help you decide how hot, cold, wet, or windy it might be!

Date:

Astronomy

May. 07, 2013 Rise Set
Actual Time 6:10 AM CDT 9:03 PM CDT
Civil Twilight 5:34 AM CDT 9:39 PM CDT
Nautical Twilight 4:48 AM CDT 10:26 PM CDT
Astronomical Twilight 3:52 AM CDT 11:22 PM CDT
Moon 4:56 AM CDT (5/7) 6:56 PM CDT (5/7)
Length of Visible Light 16h 04m
Length of Day
14h 52m
Waning Crescent, 5% of the Moon is Illuminated
May 7
Waning Crescent
May 9
New
May 17
First Quarter
May 24
Full
May 31
Last Quarter

Hourly Weather History & Observations

Time (CDT) Temp. Windchill Dew Point Humidity Pressure Visibility Wind Dir Wind Speed Gust Speed Precip Events Conditions
12:15 AM 50.0 °F - 37.4 °F 62% 29.99 in 10.0 mi South 8.1 mph - N/A   Clear
12:35 AM 48.2 °F - 37.4 °F 66% 29.99 in 10.0 mi South 8.1 mph - N/A   Clear
12:55 AM 48.2 °F - 37.4 °F 66% 29.99 in 10.0 mi South 6.9 mph - N/A   Clear
1:15 AM 46.4 °F 43.5 °F 37.4 °F 71% 29.98 in 10.0 mi South 5.8 mph - N/A   Clear
1:35 AM 46.4 °F 43.5 °F 35.6 °F 66% 29.98 in 10.0 mi SSE 5.8 mph - N/A   Clear
1:55 AM 46.4 °F 43.5 °F 37.4 °F 71% 29.98 in 10.0 mi SSE 5.8 mph - N/A   Clear
2:15 AM 46.4 °F 42.4 °F 35.6 °F 66% 29.98 in 10.0 mi SSE 8.1 mph - N/A   Clear
2:35 AM 41.0 °F 37.1 °F 35.6 °F 81% 29.98 in 10.0 mi SE 5.8 mph - N/A   Clear
2:55 AM 41.0 °F 39.0 °F 35.6 °F 81% 29.98 in 10.0 mi ESE 3.5 mph - N/A   Clear
3:15 AM 41.0 °F - 35.6 °F 81% 29.97 in 10.0 mi Calm Calm - N/A   Clear
3:35 AM 41.0 °F - 35.6 °F 81% 29.97 in 10.0 mi Calm Calm - N/A   Clear
3:55 AM 39.2 °F - 35.6 °F 87% 29.97 in 10.0 mi Calm Calm - N/A   Clear
4:15 AM 39.2 °F - 35.6 °F 87% 29.97 in 10.0 mi Calm Calm - N/A   Clear
4:35 AM 37.4 °F - 32.0 °F 81% 29.97 in 10.0 mi Calm Calm - N/A   Clear
4:55 AM 35.6 °F 32.8 °F 32.0 °F 87% 29.97 in 10.0 mi East 3.5 mph - N/A   Clear
5:15 AM 35.6 °F 31.7 °F 32.0 °F 87% 29.96 in 10.0 mi East 4.6 mph - N/A   Clear
5:35 AM 35.6 °F 30.7 °F 32.0 °F 87% 29.96 in 10.0 mi East 5.8 mph - N/A   Clear
5:55 AM 35.6 °F 30.7 °F 32.0 °F 87% 29.96 in 10.0 mi East 5.8 mph - N/A   Clear
6:15 AM 35.6 °F 31.7 °F 32.0 °F 87% 29.96 in 10.0 mi East 4.6 mph - N/A   Clear
6:35 AM 35.6 °F 31.7 °F 32.0 °F 87% 29.96 in 10.0 mi East 4.6 mph - N/A   Clear
6:55 AM 37.4 °F 33.8 °F 35.6 °F 93% 29.96 in 10.0 mi ESE 4.6 mph - N/A   Clear
7:15 AM 39.2 °F 35.9 °F 37.4 °F 93% 29.96 in 10.0 mi East 4.6 mph - N/A   Clear
7:35 AM 44.6 °F 42.2 °F 39.2 °F 81% 29.96 in 10.0 mi ESE 4.6 mph - N/A   Clear
7:55 AM 46.4 °F 45.2 °F 39.2 °F 76% 29.96 in 10.0 mi SE 3.5 mph - N/A   Clear
8:15 AM 50.0 °F - 39.2 °F 66% 29.96 in 10.0 mi SSE 4.6 mph - N/A   Clear
8:35 AM 53.6 °F - 39.2 °F 58% 29.96 in 10.0 mi SSE 4.6 mph - N/A   Clear
8:55 AM 53.6 °F - 41.0 °F 62% 29.95 in 10.0 mi South 4.6 mph - N/A   Clear
9:15 AM 57.2 °F - 41.0 °F 55% 29.95 in 10.0 mi South 4.6 mph - N/A   Clear
9:35 AM 59.0 °F - 41.0 °F 51% 29.95 in 10.0 mi South 5.8 mph - N/A   Clear
9:55 AM 60.8 °F - 41.0 °F 48% 29.95 in 10.0 mi SSE 4.6 mph - N/A   Clear
10:15 AM 62.6 °F - 39.2 °F 42% 29.94 in 10.0 mi South 5.8 mph - N/A   Clear
10:35 AM 64.4 °F - 39.2 °F 40% 29.93 in 10.0 mi South 9.2 mph - N/A   Clear
10:55 AM 66.2 °F - 39.2 °F 37% 29.93 in 10.0 mi South 11.5 mph - N/A   Clear
11:15 AM 66.2 °F - 37.4 °F 35% 29.93 in 10.0 mi South 13.8 mph 20.7 mph N/A   Clear
11:35 AM 68.0 °F - 37.4 °F 33% 29.93 in 10.0 mi South 13.8 mph 18.4 mph N/A   Clear
11:55 AM 68.0 °F - 37.4 °F 33% 29.92 in 10.0 mi SSW 13.8 mph 19.6 mph N/A   Clear
12:15 PM 68.0 °F - 37.4 °F 33% 29.92 in 10.0 mi SW 15.0 mph 19.6 mph N/A   Clear
12:35 PM 69.8 °F - 37.4 °F 31% 29.92 in 10.0 mi SSW 13.8 mph 19.6 mph N/A   Clear
12:55 PM 71.6 °F - 37.4 °F 29% 29.91 in 10.0 mi SSW 10.4 mph 17.3 mph N/A   Clear
1:15 PM 71.6 °F - 35.6 °F 27% 29.91 in 10.0 mi SSW 11.5 mph 19.6 mph N/A   Clear
1:35 PM 71.6 °F - 37.4 °F 29% 29.90 in 10.0 mi SSW 10.4 mph 18.4 mph N/A   Clear
1:55 PM 71.6 °F - 37.4 °F 29% 29.90 in 10.0 mi SW 8.1 mph - N/A   Clear
2:15 PM 71.6 °F - 37.4 °F 29% 29.89 in 10.0 mi SSW 13.8 mph 19.6 mph N/A   Clear
2:35 PM 73.4 °F - 37.4 °F 27% 29.89 in 10.0 mi SW 12.7 mph 19.6 mph N/A   Clear
2:55 PM 71.6 °F - 37.4 °F 29% 29.88 in 10.0 mi SSW 8.1 mph - N/A   Clear
3:15 PM 73.4 °F - 37.4 °F 27% 29.88 in 10.0 mi SSW 8.1 mph 19.6 mph N/A   Clear
3:35 PM 73.4 °F - 37.4 °F 27% 29.87 in 10.0 mi WSW 6.9 mph - N/A   Clear
3:55 PM 73.4 °F - 39.2 °F 29% 29.87 in 10.0 mi South 10.4 mph 19.6 mph N/A   Clear
4:15 PM 73.4 °F - 39.2 °F 29% 29.87 in 10.0 mi SW 9.2 mph - N/A   Clear
4:35 PM 73.4 °F - 39.2 °F 29% 29.86 in 10.0 mi South 11.5 mph - N/A   Clear
4:55 PM 73.4 °F - 39.2 °F 29% 29.86 in 10.0 mi SSE 3.5 mph - N/A   Clear
5:15 PM 73.4 °F - 39.2 °F 29% 29.86 in 10.0 mi SW 6.9 mph - N/A   Clear
5:35 PM 73.4 °F - 39.2 °F 29% 29.86 in 10.0 mi SW 8.1 mph - N/A   Clear
5:55 PM 73.4 °F - 37.4 °F 27% 29.86 in 10.0 mi West 3.5 mph - N/A   Clear
6:15 PM 73.4 °F - 37.4 °F 27% 29.86 in 10.0 mi South 3.5 mph - N/A   Clear
6:55 PM 73.4 °F - 39.2 °F 29% 29.85 in 10.0 mi SSE 5.8 mph - N/A   Clear
7:15 PM 73.4 °F - 39.2 °F 29% 29.85 in 10.0 mi South 5.8 mph - N/A   Clear
7:35 PM 71.6 °F - 39.2 °F 31% 29.85 in 10.0 mi SSE 4.6 mph - N/A   Clear
7:55 PM 71.6 °F - 39.2 °F 31% 29.85 in 10.0 mi SSE 6.9 mph - N/A   Clear
8:15 PM 69.8 °F - 39.2 °F 33% 29.86 in 10.0 mi SSE 8.1 mph - N/A   Clear
8:35 PM 66.2 °F - 41.0 °F 40% 29.86 in 10.0 mi SSE 6.9 mph - N/A   Clear
8:55 PM 64.4 °F - 41.0 °F 42% 29.86 in 10.0 mi SE 6.9 mph - N/A   Clear
9:15 PM 62.6 °F - 41.0 °F 45% 29.87 in 10.0 mi SSE 9.2 mph - N/A   Clear
9:35 PM 59.0 °F - 41.0 °F 51% 29.88 in 10.0 mi SE 6.9 mph - N/A   Clear
9:55 PM 59.0 °F - 41.0 °F 51% 29.88 in 10.0 mi SE 6.9 mph - N/A   Clear
10:15 PM 55.4 °F - 41.0 °F 58% 29.88 in 10.0 mi SE 6.9 mph - N/A   Clear
10:35 PM 55.4 °F - 41.0 °F 58% 29.89 in 10.0 mi SSE 6.9 mph - N/A   Clear
10:55 PM 57.2 °F - 41.0 °F 55% 29.89 in 10.0 mi SSE 5.8 mph - N/A   Clear
11:15 PM 55.4 °F - 41.0 °F 58% 29.89 in 10.0 mi SSE 5.8 mph - N/A   Clear
11:35 PM 53.6 °F - 41.0 °F 62% 29.89 in 10.0 mi SE 4.6 mph - N/A   Clear
11:55 PM 53.6 °F - 41.0 °F 62% 29.89 in 10.0 mi SSE 5.8 mph - N/A   Clear